[[{"header":{"parameterUnit":"m.s-1","parameterCategory":1,"la1":30.2991,"la2":30.254,"lo1":-89.0895,"lo2":-89.0444,"dy":0.0017,"dx":0.0017,"nx":28,"ny":28,"refTime":"2024-04-14T03:00:00:Z","depth":0,"parameterNumber":2,"parameterNumberName":"U-component_of_WINDS"},"data":[0,0,0,0,0,0,0,0,0,0,0,0,0,0,0,0,0,0,0,0,0,0,0,0,0,0,0,0,0,0,0,0,0,0,0,0,0,0,0,0,0,0,0,0,0,0,0,0,0,0,0,0,0,0,0,0,0,0,-3.3542,-3.3542,0,-3.3483,-3.3482,-3.3482,-3.3407,-3.3406,-3.3405,-3.3404,-3.3344,-3.3343,-3.3343,0,0,0,0,0,0,0,0,0,0,0,0,0,-3.359,-3.359,-3.3542,-3.3542,-3.3541,-3.3483,-3.3482,-3.3482,-3.3408,-3.3406,-3.3405,-3.3403,-3.3344,-3.3343,-3.3343,0,0,0,0,0,0,0,0,0,0,0,0,0,-3.3554,-3.359,-3.3542,-3.3497,-3.3492,-3.3483,-3.3482,-3.3481,-3.3408,-3.3406,-3.3404,-3.3403,-3.3344,-3.3343,-3.3343,-3.3374,0,0,-3.334,-3.334,0,0,0,0,0,0,0,0,-3.3556,-3.3553,-3.3504,-3.35,-3.3495,-3.3451,-3.3477,-3.3445,-3.3408,-3.344,-3.3404,-3.3402,-3.3381,-3.3377,-3.337,-3.3371,-3.3368,-3.334,-3.334,-3.3339,-3.3339,0,0,0,0,0,0,0,-3.3559,-3.3555,-3.3519,-3.3504,-3.3498,-3.3479,-3.3472,-3.3471,-3.3421,-3.3437,-3.3431,-3.3425,-3.3378,-3.3371,-3.3368,-3.3367,-3.334,-3.334,-3.3339,-3.3339,-3.3388,-3.339,0,0,0,0,0,0,-3.3568,-3.3557,-3.3521,-3.3517,-3.3522,-3.348,-3.3472,-3.3467,-3.3421,-3.3412,-3.3427,-3.3422,-3.3373,-3.3369,-3.3365,-3.3396,-3.3339,-3.3339,-3.3338,-3.3386,-3.3388,-3.339,0,0,0,0,0,0,-3.357,-3.3566,-3.3523,-3.3536,-3.3529,-3.3481,-3.3476,-3.3466,-3.3459,-3.3413,-3.3404,-3.3429,-3.3371,-3.3366,-3.3371,-3.3393,-3.3338,-3.3338,-3.3384,-3.3387,-3.3389,-3.3459,0,0,0,0,0,0,-3.3571,-3.3567,-3.3578,-3.3536,-3.3528,-3.3531,-3.3477,-3.3467,-3.3458,-3.3451,-3.3413,-3.3404,-3.3369,-3.3373,-3.3371,-3.3391,-3.3337,-3.3382,-3.3385,-3.3388,-3.3455,-3.3464,-3.3472,0,0,0,0,0,-3.3573,-3.3601,-3.3579,-3.3575,-3.3542,-3.3532,-3.3527,-3.3486,-3.346,-3.3471,-3.3441,-3.3406,-3.3392,-3.3374,-3.3371,-3.3391,-3.338,-3.3384,-3.3388,-3.3451,-3.3462,-3.3472,0,0,0,0,0,0,-3.3647,-3.3595,-3.357,-3.3585,-3.3564,-3.352,-3.3532,-3.35,-3.3486,-3.348,-3.343,-3.3422,-3.3432,-3.3413,-3.3394,-3.3417,-3.338,-3.3384,-3.3429,-3.344,-3.3448,-3.3451,-3.3337,0,0,0,0,0,-3.3665,-3.3662,-3.3616,-3.3634,-3.3625,-3.3581,-3.3575,-3.3545,-3.352,-3.3511,-3.3482,-3.3459,-3.3449,-3.3444,-3.3433,-3.3453,-3.3441,-3.3465,-3.3473,-3.3481,-3.3483,-3.3489,-3.3498,-3.3403,-3.3403,-3.3403,0,0,-3.3703,-3.3674,-3.3674,-3.3648,-3.3628,-3.3624,-3.3573,-3.3573,-3.3569,-3.3511,-3.3513,-3.3491,-3.3462,-3.3474,-3.3478,-3.3458,-3.3508,-3.3486,-3.3492,-3.349,-3.3494,-3.3503,-3.3511,-3.3406,-3.3405,-3.3405,0,0,-3.3768,-3.3747,-3.3758,-3.3738,-3.3708,-3.3678,-3.3681,-3.3642,-3.3624,-3.3626,-3.3581,-3.3577,-3.3562,-3.3542,-3.353,-3.3587,-3.3553,-3.3585,-3.3629,-3.3635,-3.3643,-3.3649,-3.3666,-3.3673,-3.3589,-3.3589,-3.3589,0,-3.3817,-3.3811,-3.3768,-3.3769,-3.3757,-3.3705,-3.3714,-3.3698,-3.3666,-3.3659,-3.3638,-3.3615,-3.3593,-3.3598,-3.3612,-3.3605,-3.3605,-3.3588,-3.3645,-3.3651,-3.3656,-3.3672,-3.3679,-3.3593,-3.3592,-3.3592,-3.3592,0,-3.3872,-3.3868,-3.3881,-3.385,-3.3841,-3.3847,-3.3803,-3.3799,-3.377,-3.3742,-3.3743,-3.3714,-3.3695,-3.3694,-3.3667,-3.3695,-3.3683,-3.3655,-3.3616,-3.367,-3.3684,-3.369,-3.3598,-3.3597,-3.3596,-3.3595,0,0,-3.3981,-3.3926,-3.3931,-3.3915,-3.3877,-3.3873,-3.3876,-3.3857,-3.3853,-3.3833,-3.3832,-3.382,-3.3792,-3.3779,-3.3749,-3.3755,-3.3798,-3.3725,-3.3723,-3.3737,-3.3823,-3.3843,-3.3851,-3.3776,-3.3777,-3.3778,-3.3825,0,-3.4037,-3.4038,-3.3999,-3.4011,-3.4005,-3.3955,-3.3957,-3.3934,-3.3908,-3.3899,-3.3871,-3.3861,-3.3828,-3.3819,-3.3823,-3.3792,-3.3814,-3.3789,-3.3773,-3.3773,-3.3779,-3.3859,-3.388,-3.3925,-3.383,-3.3831,-3.3832,0,-3.4102,-3.4084,-3.4095,-3.4055,-3.4051,-3.4054,-3.4032,-3.4025,-3.3997,-3.3978,-3.3962,-3.3928,-3.3926,-3.3892,-3.3888,-3.3871,-3.3863,-3.3847,-3.3847,-3.3842,-3.3804,-3.3852,-3.3939,-3.3945,-3.3841,-3.384,-3.3839,0,-3.4176,-3.4155,-3.4158,-3.4147,-3.4102,-3.4104,-3.4085,-3.4056,-3.4046,-3.4027,-3.4019,-3.4001,-3.399,-3.3976,-3.3936,-3.3915,-3.3936,-3.3899,-3.3918,-3.3919,-3.3922,-3.3922,-3.4006,-3.3922,-3.3922,-3.3922,-3.3922,0,-3.424,-3.4249,-3.4191,-3.4192,-3.4199,-3.4154,-3.4162,-3.4139,-3.4113,-3.4108,-3.4064,-3.4061,-3.401,-3.4,-3.397,-3.3969,-3.3966,-3.3949,-3.394,-3.3951,-3.3953,-3.3942,-3.3937,-3.3924,-3.3924,-3.3923,-3.3923,0,-3.4323,-3.4286,-3.4285,-3.4242,-3.4231,-3.4238,-3.42,-3.4199,-3.4171,-3.4166,-3.4162,-3.4117,-3.4103,-3.4063,-3.4039,-3.4019,-3.4026,-3.4012,-3.4035,-3.4029,-3.4049,-3.4046,-3.4127,-3.4133,-3.4049,-3.405,-3.4051,0,-3.4366,-3.437,-3.4328,-3.4321,-3.4304,-3.4295,-3.4284,-3.424,-3.4231,-3.4198,-3.4201,-3.4184,-3.4167,-3.4147,-3.4112,-3.4093,-3.4075,-3.4105,-3.4072,-3.4082,-3.4072,-3.4071,-3.407,-3.4111,-3.4112,-3.4113,-3.4114,0,-3.4444,-3.4424,-3.4411,-3.439,-3.4379,-3.4361,-3.434,-3.4338,-3.4288,-3.4279,-3.4264,-3.4252,-3.4227,-3.4209,-3.4184,-3.4164,-3.413,-3.4125,-3.4128,-3.4137,-3.415,-3.414,-3.4051,-3.4123,-3.4122,-3.4121,-3.4121,-3.412,-3.4505,-3.4506,-3.4475,-3.4461,-3.4441,-3.4423,-3.4419,-3.439,-3.4377,-3.4353,-3.4328,-3.4315,-3.4285,-3.4248,-3.423,-3.4218,-3.42,-3.4206,-3.4206,-3.4207,-3.4211,-3.4154,-3.4214,-3.4214,-3.4213,-3.4213,-3.4213,0,-3.4578,-3.4556,-3.4543,-3.4515,-3.4504,-3.4474,-3.445,-3.4442,-3.4431,-3.4406,-3.4391,-3.4372,-3.4355,-3.4318,-3.4297,-3.4294,-3.4278,-3.429,-3.4288,-3.4283,-3.423,-3.4228,-3.4303,-3.4303,-3.4303,-3.4303,-3.4303,-3.4303,-3.4614,-3.4613,-3.459,-3.4579,-3.4556,-3.4543,-3.4531,-3.4513,-3.4493,-3.4474,-3.4459,-3.4436,-3.4405,-3.4381,-3.4363,-3.4352,-3.4345,-3.4361,-3.4346,-3.4296,-3.4287,-3.4279,-3.4277,-3.4361,-3.4361,-3.4399,-3.44,-3.44]},{"header":{"parameterUnit":"m.s-1","parameterCategory":1,"la1":30.2991,"la2":30.254,"lo1":-89.0895,"lo2":-89.0444,"dy":0.0017,"dx":0.0017,"nx":28,"ny":28,"refTime":"2024-04-14T03:00:00:Z","depth":0,"parameterNumber":3,"parameterNumberName":"V-component_of_WINDS"},"data":[0,0,0,0,0,0,0,0,0,0,0,0,0,0,0,0,0,0,0,0,0,0,0,0,0,0,0,0,0,0,0,0,0,0,0,0,0,0,0,0,0,0,0,0,0,0,0,0,0,0,0,0,0,0,0,0,0,0,3.6045,3.6047,0,3.6218,3.622,3.6222,3.6245,3.6244,3.6242,3.624,3.6416,3.6422,3.6428,0,0,0,0,0,0,0,0,0,0,0,0,0,3.5737,3.5742,3.6045,3.6047,3.6049,3.6218,3.622,3.6222,3.6245,3.6243,3.6242,3.624,3.6414,3.6421,3.6428,0,0,0,0,0,0,0,0,0,0,0,0,0,3.5886,3.5744,3.6045,3.6081,3.6086,3.6217,3.622,3.6223,3.6246,3.6243,3.6241,3.6239,3.6411,3.642,3.6429,3.6535,0,0,3.6458,3.6462,0,0,0,0,0,0,0,0,3.5878,3.5897,3.6074,3.6079,3.6085,3.6208,3.6176,3.6328,3.6246,3.6185,3.624,3.6238,3.6348,3.6362,3.64,3.6543,3.6551,3.6458,3.6464,3.6468,3.6471,0,0,0,0,0,0,0,3.5867,3.589,3.6113,3.6076,3.6083,3.609,3.6108,3.6204,3.6278,3.619,3.6192,3.6213,3.6351,3.6391,3.6404,3.6553,3.6458,3.6466,3.6472,3.6476,3.6797,3.6799,0,0,0,0,0,0,3.585,3.5881,3.6108,3.6119,3.5973,3.6097,3.6118,3.6171,3.6277,3.6291,3.6215,3.6213,3.6377,3.6394,3.6411,3.6545,3.6468,3.6477,3.6482,3.6794,3.6797,3.68,0,0,0,0,0,0,3.5843,3.587,3.6101,3.6001,3.6031,3.6105,3.6164,3.6175,3.6216,3.6296,3.6309,3.6242,3.6375,3.6398,3.6505,3.6551,3.6481,3.6489,3.679,3.6795,3.6799,3.6811,0,0,0,0,0,0,3.5835,3.5868,3.5908,3.6001,3.6036,3.6192,3.6167,3.618,3.6232,3.6232,3.6325,3.6338,3.6375,3.6491,3.6514,3.6562,3.6496,3.6786,3.6792,3.6797,3.6807,3.6815,3.6822,0,0,0,0,0,3.5823,3.5903,3.591,3.5937,3.6088,3.6194,3.6214,3.6256,3.6235,3.6277,3.6329,3.6335,3.6542,3.6502,3.6528,3.658,3.6784,3.6791,3.6797,3.6803,3.6814,3.6822,0,0,0,0,0,0,3.5811,3.5916,3.5924,3.6037,3.6107,3.6198,3.6252,3.6265,3.6341,3.6338,3.6385,3.6406,3.6512,3.6557,3.651,3.669,3.6661,3.6673,3.6657,3.6667,3.6675,3.6662,3.6504,0,0,0,0,0,3.5822,3.59,3.5987,3.6078,3.6113,3.6176,3.6224,3.6251,3.6325,3.6354,3.6414,3.6485,3.6567,3.662,3.6699,3.6814,3.6836,3.6862,3.687,3.6876,3.6886,3.6954,3.6967,3.6822,3.6822,3.6822,0,0,3.5844,3.5911,3.5957,3.6077,3.6134,3.6215,3.6201,3.6286,3.6346,3.6367,3.6473,3.652,3.6603,3.6715,3.6768,3.6756,3.6931,3.6885,3.6889,3.6896,3.6962,3.6975,3.6988,3.6827,3.6826,3.6825,0,0,3.5926,3.5984,3.6068,3.6126,3.6214,3.6257,3.6277,3.6368,3.64,3.6508,3.6526,3.6599,3.6737,3.6797,3.6845,3.6955,3.6965,3.698,3.7021,3.7086,3.7097,3.7108,3.7149,3.7163,3.6989,3.6989,3.6989,0,3.5943,3.6065,3.6109,3.6195,3.6248,3.6272,3.6359,3.6413,3.6522,3.6559,3.6544,3.6721,3.6778,3.6907,3.6934,3.6972,3.6998,3.6969,3.7092,3.7103,3.7113,3.7153,3.7169,3.6991,3.6991,3.699,3.699,0,3.6082,3.6167,3.6224,3.6331,3.6391,3.6476,3.6534,3.6589,3.6611,3.6656,3.6767,3.6838,3.6933,3.6966,3.6987,3.7098,3.7089,3.7082,3.7054,3.7128,3.7166,3.7182,3.6993,3.6992,3.6992,3.6992,0,0,3.6159,3.6292,3.6312,3.6363,3.6463,3.653,3.6618,3.6713,3.6761,3.6836,3.6912,3.7031,3.7027,3.7082,3.7111,3.7168,3.7254,3.7155,3.7158,3.7172,3.7384,3.7389,3.7406,3.7261,3.7264,3.7266,3.7378,0,3.6254,3.6411,3.6456,3.6589,3.6669,3.6696,3.6773,3.6843,3.6888,3.6963,3.7013,3.7097,3.7085,3.7119,3.7176,3.7231,3.7297,3.7223,3.7333,3.7336,3.7312,3.7426,3.7431,3.7532,3.7393,3.7396,3.7397,0,3.6385,3.6466,3.6607,3.6702,3.6737,3.6805,3.6898,3.6969,3.7051,3.708,3.7144,3.7168,3.7263,3.723,3.7362,3.7311,3.7358,3.7392,3.7397,3.741,3.7371,3.7443,3.7566,3.7581,3.7421,3.7419,3.7418,0,3.643,3.6573,3.6678,3.672,3.6831,3.688,3.6928,3.7008,3.7063,3.7145,3.7182,3.7272,3.7322,3.7392,3.7441,3.7412,3.7569,3.754,3.7597,3.7596,3.7629,3.7626,3.7762,3.7658,3.7657,3.7657,3.7657,0,3.6532,3.6618,3.67,3.6764,3.6863,3.6913,3.701,3.7059,3.7131,3.7206,3.7234,3.7304,3.7364,3.7443,3.7482,3.7587,3.7608,3.7635,3.7645,3.7634,3.7631,3.7666,3.7661,3.7661,3.766,3.7659,3.7659,0,3.6598,3.6656,3.6772,3.687,3.6896,3.6965,3.7049,3.7113,3.716,3.7256,3.7281,3.7355,3.745,3.7506,3.7625,3.7651,3.7768,3.7773,3.774,3.7745,3.78,3.7794,3.7964,3.799,3.7867,3.7868,3.7869,0,3.6659,3.6727,3.6833,3.6886,3.6936,3.7021,3.7079,3.7133,3.7192,3.7293,3.7345,3.7442,3.7522,3.7673,3.7737,3.7829,3.7838,3.7892,3.7852,3.784,3.7842,3.7838,3.7846,3.7898,3.79,3.79,3.7901,0,3.6763,3.679,3.6872,3.6967,3.7035,3.7112,3.7187,3.7229,3.7296,3.7362,3.746,3.7522,3.7646,3.7742,3.7841,3.7892,3.7909,3.7913,3.7932,3.7921,3.79,3.7915,3.776,3.7909,3.7908,3.7908,3.7907,3.7907,3.683,3.6893,3.6979,3.7071,3.7135,3.7206,3.7272,3.7329,3.7412,3.7518,3.7545,3.7648,3.7732,3.7866,3.792,3.8002,3.7994,3.802,3.8027,3.8033,3.8035,3.7887,3.802,3.802,3.802,3.802,3.802,0,3.6938,3.6995,3.708,3.7186,3.726,3.7271,3.7356,3.7417,3.7508,3.7585,3.7665,3.778,3.7874,3.7948,3.8046,3.8098,3.8108,3.8122,3.8119,3.8131,3.8036,3.8011,3.8112,3.8112,3.8112,3.8112,3.8112,3.8112,3.7002,3.711,3.7147,3.7288,3.7345,3.7448,3.7496,3.7563,3.7625,3.7752,3.7832,3.788,3.7957,3.8061,3.8149,3.8168,3.8204,3.8216,3.8237,3.8147,3.8137,3.8127,3.8105,3.8223,3.8223,3.8325,3.8326,3.8327]}]]